Regional Weather Roundup
Issued by NWS

Home | Current Version | Previous Version | Graphics & Text | Print | Product List | Glossary On
Versions: 1 2 3 4 5 6 7 8 9 10 11 12 13 14 15 16 17 18 19 20 21 22 23 24 25 26 27 28 29 30 31 32 33 34 35 36 37 38 39 40 41 42 43 44 45 46 47 48 49 50
000
ASUS45 KABQ 200001
RWRNM
NEW MEXICO REGIONAL WEATHER ROUNDUP
NATIONAL WEATHER SERVICE ALBUQUERQUE NM
600 PM MDT TUE SEP 19 2017

NOTE: "FAIR" MEANS FEW OR NO CLOUDS BELOW 12,000 FEET AGL WITH NO
       SIGNIFICANT WEATHER OR OBSTRUCTIONS TO VISION.

      THIS PRODUCT IS RELEASED AS TWO VERSIONS.  ONE VERSION NEAR
      THE TOP OF THE HOUR CONTAINING PRELIMINARY DATA FROM ALBUQUERQUE
      AND OTHER STATIONS.  A FINAL VERSION WITH ADDITIONAL DATA IS
      ISSUED ABOUT 10 MINUTES AFTER THE HOUR.

NMZ501-503-504-510>518-200100-
NORTHWEST PLATEAU/NORTHCENTRAL MOUNTAINS

CITY           SKY/WX    TMP DP  RH WIND       PRES   REMARKS
FARMINGTON     FAIR      80  16   9 W20       29.87R
6HR MIN TEMP:  71; 6HR MAX TEMP:  83;

LOS ALAMOS     FAIR      75  11   9 SW14G23   30.02S
SANTA FE       FAIR      80  12   7 MISG      29.94F
6HR MIN TEMP:  75; 6HR MAX TEMP:  83;

TAOS           FAIR      75  11   8 W25G36    29.99F
ANGEL FIRE     FAIR      65  13  13 W13G18    30.04F

$$
NMZ402-403-502-505>509-200100-
WESTCENTRAL MOUNTAINS/SOUTHWEST MOUNTAINS

CITY           SKY/WX    TMP DP  RH WIND       PRES   REMARKS
GALLUP         FAIR       0   0 100 CALM      29.99F
6HR MIN TEMP:   0; 6HR MAX TEMP:  80;

GRANTS         FAIR      76  20  12 W17G28    30.01F
SILVER CITY    FAIR      82  43  25 W21G29    30.01F

$$
NMZ407-409-411-412-200100-
SOUTHERN DESERTS

CITY           SKY/WX    TMP DP  RH WIND       PRES   REMARKS
DEMING         FAIR      88  47  24 W20G28    29.92S
6HR MIN TEMP:  84; 6HR MAX TEMP:  91;

LAS CRUCES     FAIR      88  42  19 W24G31    29.92F
HOLLOMAN AFB   FAIR      90  44  19 W20       29.89S
ALAMOGORDO     FAIR      90  41  18 W16G22    29.89S
T OR C         FAIR      88  35  15 W16G25    29.91S
6HR MIN TEMP:  86; 6HR MAX TEMP:  91;


$$
NMZ519>523-200100-
CENTRAL VALLEYS/CENTRAL HIGHLANDS

CITY           SKY/WX    TMP DP  RH WIND       PRES   REMARKS
ALBUQUERQUE    FAIR      85  16   7 W15G30    29.90F
6HR MIN TEMP:  75; 6HR MAX TEMP:  88;

DOUBLE EAGLE   MOSUNNY   82  19   9 W16G24    29.94F
CLINES CORNERS FAIR      76  19  11 W28G40    30.00
6HR MIN TEMP:  73; 6HR MAX TEMP:  80;

BELEN          FAIR      88  20   8 W13       29.89S
6HR MIN TEMP:  82; 6HR MAX TEMP:  91;

SOCORRO        FAIR      88  29  12 W10G18    29.89S
6HR MIN TEMP:  83; 6HR MAX TEMP:  92;


$$
NMZ524>526-539-540-200100-
SOUTHCENTRAL MOUNTAINS

CITY           SKY/WX    TMP DP  RH WIND       PRES   REMARKS
RUIDOSO        FAIR      75  36  23 W16G26    30.07S

$$
NMZ527>531-200100-
NORTHEAST HIGHLANDS/NORTHEAST PLAINS

CITY           SKY/WX    TMP DP  RH WIND       PRES   REMARKS
LAS VEGAS      FAIR      75  16  10 W22G35    29.95S
6HR MIN TEMP:  73; 6HR MAX TEMP:  77;

RATON          FAIR      78  15   9 SW24G33   29.84S
6HR MIN TEMP:  74; 6HR MAX TEMP:  79;

CLAYTON        FAIR      79  29  16 S20       29.76S
6HR MIN TEMP:  79; 6HR MAX TEMP:  88;


$$
NMZ532>537-200100-
EASTCENTRAL PLAINS

CITY           SKY/WX    TMP DP  RH WIND       PRES   REMARKS
SANTA ROSA     FAIR      87  27  11 W14G22    29.82S
TUCUMCARI      FAIR      91  30  11 W21G33    29.74F
6HR MIN TEMP:  89; 6HR MAX TEMP:  95;

CANNON AFB     FAIR      88  38  16 SW15      29.83F
6HR MIN TEMP:  86; 6HR MAX TEMP:  91;

CLOVIS AIRPORT FAIR      88  42  20 W16       29.83S

$$
NMZ028-029-538-200100-
SOUTHEAST PLAINS

CITY           SKY/WX    TMP DP  RH WIND       PRES   REMARKS
ROSWELL        FAIR      94  41  16 W18G25    29.80S
6HR MIN TEMP:  93; 6HR MAX TEMP:  98;

ARTESIA        FAIR      93  41  16 W21       29.81S
CARLSBAD       FAIR      94  44  17 W14       29.79S
6HR MIN TEMP:  94; 6HR MAX TEMP:  98;

HOBBS          MOSUNNY   91  41  17 SW14      29.83S


$$




USA.gov is the U.S. government's official web portal to all federal, state and local government web resources and services.